Time,TemperatureF,DewpointF,PressureIn,WindDirection,WindDirectionDegrees,WindSpeedMPH,WindSpeedGustMPH,Humidity,HourlyPrecipIn,Conditions,Clouds,dailyrainin,SoftwareType,DateUTC
2013-02-03 00:00:00,13.4,10.5,30.00,South,171,1.0,13.0,88,0.00,,,0.00,Wunderground v.1.15,2013-02-03 05:00:00,
2013-02-03 00:10:00,12.8,9.9,30.00,South,171,0.0,13.0,88,0.00,,,0.00,Wunderground v.1.15,2013-02-03 05:10:00,
2013-02-03 00:20:00,12.0,9.4,29.99,South,171,0.0,13.0,89,0.00,,,0.00,Wunderground v.1.15,2013-02-03 05:20:00,
2013-02-03 00:30:00,11.6,9.0,29.99,South,171,0.0,13.0,89,0.00,,,0.00,Wunderground v.1.15,2013-02-03 05:30:00,
2013-02-03 00:40:00,11.3,8.7,29.99,South,171,0.0,13.0,89,0.00,,,0.00,Wunderground v.1.15,2013-02-03 05:40:00,
2013-02-03 00:50:00,10.8,8.2,29.99,South,171,1.0,13.0,89,0.00,,,0.00,Wunderground v.1.15,2013-02-03 05:50:00,
2013-02-03 01:00:00,10.9,8.3,29.99,South,171,1.0,13.0,89,0.00,,,0.00,Wunderground v.1.15,2013-02-03 06:00:00,
2013-02-03 01:10:00,10.5,7.9,29.98,South,171,1.0,1.0,89,0.00,,,0.00,Wunderground v.1.15,2013-02-03 06:10:00,
2013-02-03 01:20:00,9.8,7.0,29.99,South,171,0.0,13.0,88,0.00,,,0.00,Wunderground v.1.15,2013-02-03 06:20:00,
2013-02-03 01:30:00,9.9,7.3,29.98,South,171,0.0,13.0,89,0.00,,,0.00,Wunderground v.1.15,2013-02-03 06:30:00,
2013-02-03 01:40:00,9.6,7.0,29.98,South,171,0.0,13.0,89,0.00,,,0.00,Wunderground v.1.15,2013-02-03 06:40:00,
2013-02-03 01:50:00,9.3,6.7,29.98,South,171,0.0,13.0,89,0.00,,,0.00,Wunderground v.1.15,2013-02-03 06:50:00,
2013-02-03 02:00:00,9.4,6.8,29.98,South,171,1.0,13.0,89,0.00,,,0.00,Wunderground v.1.15,2013-02-03 07:00:00,
2013-02-03 02:10:00,10.4,8.0,29.98,South,171,0.0,13.0,90,0.00,,,0.00,Wunderground v.1.15,2013-02-03 07:10:00,
2013-02-03 02:20:00,11.1,8.7,29.98,South,171,0.0,13.0,90,0.00,,,0.00,Wunderground v.1.15,2013-02-03 07:20:00,
2013-02-03 02:30:00,11.5,9.1,29.98,South,171,0.0,13.0,90,0.00,,,0.00,Wunderground v.1.15,2013-02-03 07:30:00,
2013-02-03 02:40:00,11.9,9.5,29.98,South,171,0.0,13.0,90,0.00,,,0.00,Wunderground v.1.15,2013-02-03 07:40:00,
2013-02-03 02:51:00,13.0,10.9,29.98,South,171,1.0,13.0,91,0.00,,,0.00,Wunderground v.1.15,2013-02-03 07:51:00,
2013-02-03 03:00:00,13.7,11.6,29.98,South,171,1.0,13.0,91,0.00,,,0.00,Wunderground v.1.15,2013-02-03 08:00:00,
2013-02-03 03:10:00,13.9,11.5,29.97,South,171,1.0,13.0,90,0.00,,,0.00,Wunderground v.1.15,2013-02-03 08:10:00,
2013-02-03 03:21:00,13.5,11.1,29.97,South,171,1.0,13.0,90,0.00,,,0.00,Wunderground v.1.15,2013-02-03 08:21:00,
2013-02-03 03:31:00,12.9,10.0,29.97,South,171,1.0,13.0,88,0.00,,,0.00,Wunderground v.1.15,2013-02-03 08:31:00,
2013-02-03 03:41:00,12.1,9.2,29.96,South,171,1.0,1.0,88,0.00,,,0.00,Wunderground v.1.15,2013-02-03 08:41:00,
2013-02-03 03:51:00,12.0,9.4,29.96,South,171,0.0,13.0,89,0.00,,,0.00,Wunderground v.1.15,2013-02-03 08:51:00,
2013-02-03 04:01:00,12.0,9.6,29.95,South,171,0.0,13.0,90,0.00,,,0.00,Wunderground v.1.15,2013-02-03 09:01:00,
2013-02-03 04:11:00,12.0,9.6,29.95,South,171,0.0,13.0,90,0.00,,,0.00,Wunderground v.1.15,2013-02-03 09:11:00,
2013-02-03 04:21:00,11.9,9.5,29.95,South,171,0.0,13.0,90,0.00,,,0.00,Wunderground v.1.15,2013-02-03 09:21:00,
2013-02-03 04:30:00,11.9,9.5,29.95,South,171,0.0,13.0,90,0.00,,,0.00,Wunderground v.1.15,2013-02-03 09:30:00,
2013-02-03 04:40:00,11.9,9.5,29.94,South,171,0.0,13.0,90,0.00,,,0.00,Wunderground v.1.15,2013-02-03 09:40:00,
2013-02-03 04:50:00,12.0,9.6,29.94,South,171,0.0,13.0,90,0.00,,,0.00,Wunderground v.1.15,2013-02-03 09:50:00,
2013-02-03 05:00:00,11.7,9.3,29.94,South,171,0.0,13.0,90,0.00,,,0.00,Wunderground v.1.15,2013-02-03 10:00:00,
2013-02-03 05:10:00,11.6,9.0,29.94,South,171,0.0,13.0,89,0.00,,,0.00,Wunderground v.1.15,2013-02-03 10:10:00,
2013-02-03 05:20:00,11.4,8.8,29.93,South,171,0.0,13.0,89,0.00,,,0.00,Wunderground v.1.15,2013-02-03 10:20:00,
2013-02-03 05:30:00,11.2,8.6,29.93,South,171,0.0,13.0,89,0.00,,,0.00,Wunderground v.1.15,2013-02-03 10:30:00,
2013-02-03 05:40:00,11.0,8.4,29.93,South,171,0.0,13.0,89,0.00,,,0.00,Wunderground v.1.15,2013-02-03 10:40:00,
2013-02-03 05:50:00,10.8,8.2,29.93,South,171,1.0,13.0,89,0.00,,,0.00,Wunderground v.1.15,2013-02-03 10:50:00,
2013-02-03 06:01:00,10.8,8.4,29.92,South,171,0.0,0.0,90,0.00,,,0.00,Wunderground v.1.15,2013-02-03 11:01:00,
2013-02-03 06:10:00,10.4,7.8,29.92,South,171,1.0,1.0,89,0.00,,,0.00,Wunderground v.1.15,2013-02-03 11:10:00,
2013-02-03 06:20:00,10.3,7.7,29.92,South,171,1.0,1.0,89,0.00,,,0.00,Wunderground v.1.15,2013-02-03 11:20:00,
2013-02-03 06:30:00,9.7,6.9,29.92,South,171,0.0,0.0,88,0.00,,,0.00,Wunderground v.1.15,2013-02-03 11:30:00,
2013-02-03 06:40:00,9.2,6.4,29.92,South,171,0.0,1.0,88,0.00,,,0.00,Wunderground v.1.15,2013-02-03 11:40:00,
2013-02-03 06:50:00,8.9,6.1,29.91,South,171,1.0,1.0,88,0.00,,,0.00,Wunderground v.1.15,2013-02-03 11:50:00,
2013-02-03 07:01:00,8.9,6.3,29.92,South,171,1.0,1.0,89,0.00,,,0.00,Wunderground v.1.15,2013-02-03 12:01:00,
2013-02-03 07:11:00,8.7,6.1,29.92,South,171,1.0,1.0,89,0.00,,,0.00,Wunderground v.1.15,2013-02-03 12:11:00,
2013-02-03 07:21:00,8.4,5.6,29.92,South,171,0.0,1.0,88,0.00,,,0.00,Wunderground v.1.15,2013-02-03 12:21:00,
2013-02-03 07:30:00,8.5,5.9,29.92,South,171,0.0,1.0,89,0.00,,,0.00,Wunderground v.1.15,2013-02-03 12:30:00,
2013-02-03 07:40:00,8.8,6.5,29.92,South,171,0.0,1.0,90,0.00,,,0.00,Wunderground v.1.15,2013-02-03 12:40:00,
2013-02-03 07:50:00,9.0,6.4,29.92,South,171,1.0,1.0,89,0.00,,,0.00,Wunderground v.1.15,2013-02-03 12:50:00,
2013-02-03 08:00:00,9.2,6.6,29.92,South,171,1.0,1.0,89,0.00,,,0.00,Wunderground v.1.15,2013-02-03 13:00:00,
2013-02-03 08:10:00,10.6,8.5,29.93,South,171,1.0,1.0,91,0.00,,,0.00,Wunderground v.1.15,2013-02-03 13:10:00,
2013-02-03 08:20:00,12.3,10.4,29.93,South,171,1.0,1.0,92,0.00,,,0.00,Wunderground v.1.15,2013-02-03 13:20:00,
2013-02-03 08:30:00,13.7,11.8,29.92,South,171,1.0,1.0,92,0.00,,,0.00,Wunderground v.1.15,2013-02-03 13:30:00,
2013-02-03 08:40:00,14.7,12.6,29.92,South,171,1.0,2.0,91,0.00,,,0.00,Wunderground v.1.15,2013-02-03 13:40:00,
2013-02-03 08:50:00,15.6,13.4,29.92,South,171,2.0,2.0,91,0.00,,,0.00,Wunderground v.1.15,2013-02-03 13:50:00,
2013-02-03 09:00:00,16.8,14.6,29.91,South,171,2.0,2.0,91,0.00,,,0.00,Wunderground v.1.15,2013-02-03 14:00:00,
2013-02-03 09:10:00,17.9,15.5,29.91,SSW,192,2.0,2.0,90,0.00,,,0.00,Wunderground v.1.15,2013-02-03 14:10:00,
2013-02-03 09:20:00,19.4,16.4,29.91,SSW,205,2.0,2.0,88,0.00,,,0.00,Wunderground v.1.15,2013-02-03 14:20:00,
2013-02-03 09:31:00,20.7,16.9,29.90,SW,214,2.0,2.0,85,0.00,,,0.00,Wunderground v.1.15,2013-02-03 14:31:00,
2013-02-03 09:41:00,21.3,16.9,29.90,SSW,207,3.0,3.0,83,0.00,,,0.00,Wunderground v.1.15,2013-02-03 14:41:00,
2013-02-03 09:51:00,21.7,16.8,29.89,SSW,213,3.0,6.0,81,0.00,,,0.00,Wunderground v.1.15,2013-02-03 14:51:00,
2013-02-03 10:01:00,21.6,16.1,29.89,SSW,200,4.0,4.0,79,0.00,,,0.00,Wunderground v.1.15,2013-02-03 15:01:00,
2013-02-03 10:11:00,22.0,17.1,29.89,WSW,248,3.0,3.0,81,0.00,,,0.00,Wunderground v.1.15,2013-02-03 15:11:00,
2013-02-03 10:21:00,23.2,17.7,29.89,West,268,2.0,2.0,79,0.00,,,0.00,Wunderground v.1.15,2013-02-03 15:21:00,
2013-02-03 10:30:00,23.5,17.3,29.89,WNW,290,3.0,3.0,77,0.00,,,0.00,Wunderground v.1.15,2013-02-03 15:30:00,
2013-02-03 10:40:00,23.4,17.3,29.89,West,281,2.0,2.0,77,0.00,,,0.00,Wunderground v.1.15,2013-02-03 15:40:00,
2013-02-03 10:50:00,23.8,17.0,29.89,SW,230,2.0,3.0,75,0.00,,,0.00,Wunderground v.1.15,2013-02-03 15:50:00,
2013-02-03 11:00:00,24.2,17.4,29.89,WSW,251,3.0,3.0,75,0.00,,,0.00,Wunderground v.1.15,2013-02-03 16:00:00,
2013-02-03 11:10:00,24.3,17.5,29.88,WNW,294,3.0,3.0,75,0.00,,,0.00,Wunderground v.1.15,2013-02-03 16:10:00,
2013-02-03 11:20:00,23.9,17.7,29.88,WNW,287,3.0,3.0,77,0.00,,,0.00,Wunderground v.1.15,2013-02-03 16:20:00,
2013-02-03 11:30:00,23.8,17.6,29.88,NW,313,2.0,3.0,77,0.00,,,0.00,Wunderground v.1.15,2013-02-03 16:30:00,
2013-02-03 11:40:00,24.6,17.8,29.87,WSW,244,3.0,3.0,75,0.00,,,0.00,Wunderground v.1.15,2013-02-03 16:40:00,
2013-02-03 11:50:00,24.5,17.1,29.86,NW,316,3.0,3.0,73,0.00,,,0.00,Wunderground v.1.15,2013-02-03 16:50:00,
2013-02-03 12:00:00,24.6,17.2,29.86,NW,317,3.0,3.0,73,0.00,,,0.00,Wunderground v.1.15,2013-02-03 17:00:00,
2013-02-03 12:10:00,25.1,17.7,29.85,WSW,254,2.0,3.0,73,0.00,,,0.00,Wunderground v.1.15,2013-02-03 17:10:00,
2013-02-03 12:20:00,24.9,16.2,29.85,SSW,207,3.0,3.0,69,0.00,,,0.00,Wunderground v.1.15,2013-02-03 17:20:00,
2013-02-03 12:30:00,25.1,15.3,29.84,SSW,193,2.0,3.0,66,0.00,,,0.00,Wunderground v.1.15,2013-02-03 17:30:00,
2013-02-03 12:40:00,25.5,16.1,29.84,SW,215,3.0,5.0,67,0.00,,,0.00,Wunderground v.1.15,2013-02-03 17:40:00,
2013-02-03 12:51:00,25.8,13.8,29.83,SW,216,4.0,4.0,60,0.00,,,0.00,Wunderground v.1.15,2013-02-03 17:51:00,
2013-02-03 13:01:00,26.2,14.2,29.83,SW,221,4.0,4.0,60,0.00,,,0.00,Wunderground v.1.15,2013-02-03 18:01:00,
2013-02-03 13:10:00,25.9,12.7,29.83,WSW,246,4.0,4.0,57,0.00,,,0.00,Wunderground v.1.15,2013-02-03 18:10:00,
2013-02-03 13:21:00,26.1,15.2,29.82,WSW,243,4.0,4.0,63,0.00,,,0.00,Wunderground v.1.15,2013-02-03 18:21:00,
2013-02-03 13:30:00,26.0,13.2,29.82,WNW,303,4.0,4.0,58,0.00,,,0.00,Wunderground v.1.15,2013-02-03 18:30:00,
2013-02-03 13:40:00,26.1,14.5,29.82,West,262,3.0,3.0,61,0.00,,,0.00,Wunderground v.1.15,2013-02-03 18:40:00,
2013-02-03 13:50:00,26.3,14.7,29.82,WSW,257,3.0,8.0,61,0.00,,,0.00,Wunderground v.1.15,2013-02-03 18:50:00,
2013-02-03 14:00:00,26.5,14.5,29.81,South,180,3.0,3.0,60,0.00,,,0.00,Wunderground v.1.15,2013-02-03 19:00:00,
2013-02-03 14:10:00,26.3,14.3,29.82,West,273,4.0,9.0,60,0.00,,,0.00,Wunderground v.1.15,2013-02-03 19:10:00,
2013-02-03 14:20:00,26.4,13.6,29.81,WNW,289,4.0,4.0,58,0.00,,,0.00,Wunderground v.1.15,2013-02-03 19:20:00,
2013-02-03 14:30:00,26.5,14.1,29.81,NW,316,3.0,3.0,59,0.00,,,0.00,Wunderground v.1.15,2013-02-03 19:30:00,
2013-02-03 14:40:00,26.2,13.4,29.81,West,281,4.0,4.0,58,0.00,,,0.00,Wunderground v.1.15,2013-02-03 19:40:00,
2013-02-03 14:50:00,26.0,13.6,29.81,West,278,4.0,6.0,59,0.00,,,0.00,Wunderground v.1.15,2013-02-03 19:50:00,
2013-02-03 15:00:00,26.2,14.6,29.81,NNW,338,4.0,5.0,61,0.00,,,0.00,Wunderground v.1.15,2013-02-03 20:00:00,
2013-02-03 15:10:00,25.8,14.2,29.81,NW,326,4.0,4.0,61,0.00,,,0.00,Wunderground v.1.15,2013-02-03 20:10:00,
2013-02-03 15:20:00,25.3,14.8,29.81,West,268,3.0,3.0,64,0.00,,,0.00,Wunderground v.1.15,2013-02-03 20:20:00,
2013-02-03 15:30:00,25.1,16.0,29.81,NNW,335,3.0,3.0,68,0.00,,,0.00,Wunderground v.1.15,2013-02-03 20:30:00,
2013-02-03 15:41:00,24.5,15.4,29.81,West,261,3.0,4.0,68,0.00,,,0.00,Wunderground v.1.15,2013-02-03 20:41:00,
2013-02-03 15:51:00,24.5,15.1,29.81,NW,305,2.0,2.0,67,0.00,,,0.00,Wunderground v.1.15,2013-02-03 20:51:00,
2013-02-03 16:00:00,24.4,15.3,29.81,WNW,286,1.0,1.0,68,0.00,,,0.00,Wunderground v.1.15,2013-02-03 21:00:00,
2013-02-03 16:11:00,24.6,15.5,29.80,West,278,1.0,1.0,68,0.00,,,0.00,Wunderground v.1.15,2013-02-03 21:11:00,
2013-02-03 16:21:00,24.6,15.2,29.80,West,278,1.0,1.0,67,0.00,,,0.00,Wunderground v.1.15,2013-02-03 21:21:00,
2013-02-03 16:30:00,24.5,14.4,29.80,West,276,1.0,1.0,65,0.00,,,0.00,Wunderground v.1.15,2013-02-03 21:30:00,
2013-02-03 16:40:00,24.5,14.8,29.80,West,278,1.0,1.0,66,0.00,,,0.00,Wunderground v.1.15,2013-02-03 21:40:00,
2013-02-03 16:50:00,24.5,13.7,29.80,West,278,0.0,1.0,63,0.00,,,0.00,Wunderground v.1.15,2013-02-03 21:50:00,
2013-02-03 17:00:00,24.4,14.3,29.80,West,278,0.0,1.0,65,0.00,,,0.00,Wunderground v.1.15,2013-02-03 22:00:00,
2013-02-03 17:10:00,24.3,13.9,29.80,NW,325,1.0,2.0,64,0.00,,,0.00,Wunderground v.1.15,2013-02-03 22:10:00,
2013-02-03 17:20:00,24.2,15.2,29.80,NNW,342,3.0,3.0,68,0.00,,,0.00,Wunderground v.1.15,2013-02-03 22:20:00,
2013-02-03 17:30:00,23.9,16.2,29.80,NNW,348,4.0,4.0,72,0.00,,,0.00,Wunderground v.1.15,2013-02-03 22:30:00,
2013-02-03 17:40:00,23.7,16.3,29.81,North,355,3.0,3.0,73,0.00,,,0.00,Wunderground v.1.15,2013-02-03 22:40:00,
2013-02-03 17:50:00,23.6,16.2,29.81,NW,321,3.0,3.0,73,0.00,,,0.00,Wunderground v.1.15,2013-02-03 22:50:00,
2013-02-03 18:00:00,23.5,16.1,29.81,NNW,330,3.0,3.0,73,0.00,,,0.00,Wunderground v.1.15,2013-02-03 23:00:00,
2013-02-03 18:10:00,23.4,16.0,29.81,NW,322,2.0,4.0,73,0.00,,,0.00,Wunderground v.1.15,2013-02-03 23:10:00,
2013-02-03 18:20:00,23.3,16.2,29.81,NW,325,2.0,3.0,74,0.00,,,0.00,Wunderground v.1.15,2013-02-03 23:20:00,
2013-02-03 18:30:00,23.2,16.1,29.82,NNW,332,3.0,4.0,74,0.00,,,0.00,Wunderground v.1.15,2013-02-03 23:30:00,
2013-02-03 18:41:00,23.2,16.4,29.82,NNW,327,3.0,3.0,75,0.00,,,0.00,Wunderground v.1.15,2013-02-03 23:41:00,
2013-02-03 18:51:00,23.1,16.7,29.82,NW,323,2.0,3.0,76,0.00,,,0.00,Wunderground v.1.15,2013-02-03 23:51:00,
2013-02-03 19:00:00,23.0,16.9,29.82,NW,323,3.0,3.0,77,0.00,,,0.00,Wunderground v.1.15,2013-02-04 00:00:00,
2013-02-03 19:11:00,22.9,17.1,29.83,NNW,328,3.0,3.0,78,0.00,,,0.00,Wunderground v.1.15,2013-02-04 00:11:00,
2013-02-03 19:21:00,22.6,17.1,29.83,NW,323,2.0,2.0,79,0.00,,,0.00,Wunderground v.1.15,2013-02-04 00:21:00,
2013-02-03 19:30:00,22.2,16.7,29.83,NW,320,2.0,2.0,79,0.00,,,0.00,Wunderground v.1.15,2013-02-04 00:30:00,
2013-02-03 19:40:00,21.7,16.5,29.83,NW,315,1.0,1.0,80,0.00,,,0.00,Wunderground v.1.15,2013-02-04 00:40:00,
2013-02-03 19:50:00,21.7,16.8,29.84,NW,309,1.0,1.0,81,0.00,,,0.00,Wunderground v.1.15,2013-02-04 00:50:00,
2013-02-03 20:00:00,21.8,17.2,29.84,WNW,296,1.0,2.0,82,0.00,,,0.00,Wunderground v.1.15,2013-02-04 01:00:00,
2013-02-03 20:10:00,21.7,17.3,29.84,West,279,2.0,2.0,83,0.00,,,0.00,Wunderground v.1.15,2013-02-04 01:10:00,
2013-02-03 20:20:00,21.8,17.7,29.84,West,268,2.0,2.0,84,0.00,,,0.00,Wunderground v.1.15,2013-02-04 01:20:00,
2013-02-03 20:30:00,21.8,17.7,29.85,WSW,250,3.0,3.0,84,0.00,,,0.00,Wunderground v.1.15,2013-02-04 01:30:00,
2013-02-03 20:40:00,21.9,17.8,29.85,West,264,4.0,4.0,84,0.00,,,0.00,Wunderground v.1.15,2013-02-04 01:40:00,
2013-02-03 20:50:00,21.8,17.7,29.85,NW,304,4.0,7.0,84,0.00,,,0.00,Wunderground v.1.15,2013-02-04 01:50:00,
2013-02-03 21:00:00,21.6,17.8,29.85,WSW,238,5.0,5.0,85,0.00,,,0.00,Wunderground v.1.15,2013-02-04 02:00:00,
2013-02-03 21:10:00,21.5,17.7,29.86,West,273,4.0,4.0,85,0.00,,,0.00,Wunderground v.1.15,2013-02-04 02:10:00,
2013-02-03 21:20:00,21.4,17.9,29.86,SW,235,3.0,4.0,86,0.00,,,0.00,Wunderground v.1.15,2013-02-04 02:20:00,
2013-02-03 21:30:00,21.3,17.5,29.86,WSW,241,4.0,5.0,85,0.00,,,0.00,Wunderground v.1.15,2013-02-04 02:30:00,
2013-02-03 21:41:00,21.3,17.5,29.86,WSW,251,4.0,4.0,85,0.00,,,0.00,Wunderground v.1.15,2013-02-04 02:41:00,
2013-02-03 21:51:00,21.3,17.2,29.86,WSW,245,4.0,4.0,84,0.00,,,0.00,Wunderground v.1.15,2013-02-04 02:51:00,
2013-02-03 22:01:00,21.3,16.7,29.86,SW,236,5.0,5.0,82,0.00,,,0.00,Wunderground v.1.15,2013-02-04 03:01:00,
2013-02-03 22:11:00,21.2,16.3,29.85,SW,233,5.0,6.0,81,0.00,,,0.00,Wunderground v.1.15,2013-02-04 03:11:00,
2013-02-03 22:21:00,21.0,15.8,29.86,WSW,244,5.0,8.0,80,0.00,,,0.00,Wunderground v.1.15,2013-02-04 03:21:00,
2013-02-03 22:30:00,21.0,15.5,29.85,WNW,288,6.0,10.0,79,0.00,,,0.00,Wunderground v.1.15,2013-02-04 03:30:00,
2013-02-03 22:40:00,20.9,14.5,29.85,West,271,7.0,7.0,76,0.00,,,0.00,Wunderground v.1.15,2013-02-04 03:40:00,
2013-02-03 22:50:00,20.6,13.9,29.86,WSW,242,6.0,7.0,75,0.00,,,0.00,Wunderground v.1.15,2013-02-04 03:50:00,
2013-02-03 23:00:00,20.4,13.7,29.86,West,260,6.0,6.0,75,0.00,,,0.00,Wunderground v.1.15,2013-02-04 04:00:00,
2013-02-03 23:10:00,20.2,13.5,29.86,West,275,5.0,8.0,75,0.00,,,0.00,Wunderground v.1.15,2013-02-04 04:10:00,
2013-02-03 23:20:00,20.0,13.3,29.86,WSW,247,7.0,7.0,75,0.00,,,0.00,Wunderground v.1.15,2013-02-04 04:20:00,
2013-02-03 23:30:00,19.7,13.4,29.86,North,349,5.0,5.0,76,0.00,,,0.00,Wunderground v.1.15,2013-02-04 04:30:00,
2013-02-03 23:40:00,19.3,13.3,29.86,West,267,4.0,4.0,77,0.00,,,0.00,Wunderground v.1.15,2013-02-04 04:40:00,
2013-02-03 23:50:00,19.3,13.6,29.86,WSW,243,4.0,5.0,78,0.00,,,0.00,Wunderground v.1.15,2013-02-04 04:50:00,